White Plains, CT

1:48 AM EST on December 15, 2017 (GMT -0500)
Westchester County

Weather History for KHPN - January, 2012

Change the Weather History Date:

Saturday, January 21, 2012

  Actual Average Record
Temperature  
Mean Temperature 21 °F -  
Max Temperature 25 °F 31 °F 60 °F (2006)
Min Temperature 17 °F 18 °F -4 °F (1985)
Degree Days  
Heating Degree Days 44    
Moisture  
Dew Point 15 °F    
Average Humidity 76    
Maximum Humidity 89    
Minimum Humidity 44    
Precipitation  
Precipitation 0.25 in - - ()
Sea Level Pressure  
Sea Level Pressure 30.15 in    
Wind  
Wind Speed 8 mph (NNE)    
Max Wind Speed 14 mph    
Max Gust Speed 18 mph    
Visibility 5 miles    
Events Fog , Snow    
Averages and records for this station are not official NWS values.
T = Trace of Precipitation, MM = Missing Value Source: NWS Daily Summary

Daily Weather History Graph

Daily Weather History Graph

Search for Another Location

Airport or City:

Trip Planner

Search our weather history database for the weather conditions in past years. The results will help you decide how hot, cold, wet, or windy it might be!

Date:

Astronomy

Jan. 21, 2012 Rise Set
Actual Time 7:14 AM EST 4:57 PM EST
Civil Twilight 6:44 AM EST 5:27 PM EST
Nautical Twilight 6:11 AM EST 6:01 PM EST
Astronomical Twilight 5:38 AM EST 6:33 PM EST
Moon 5:43 AM EST (1/21) 3:30 PM EST (1/21)
Length of Visible Light 10h 42m
Length of Day
9h 42m
Waning Crescent, 3% of the Moon is Illuminated
Jan 21
Waning Crescent
Jan 23
New
Jan 30
First Quarter
Feb 7
Full
Feb 14
Last Quarter

Hourly Weather History & Observations

Time (EST) Temp. Windchill Dew Point Humidity Pressure Visibility Wind Dir Wind Speed Gust Speed Precip Events Conditions
12:56 AM 24.8 °F 17.9 °F 6.8 °F 46% 30.23 in 10.0 mi NE 5.8 mph - N/A   Overcast
1:56 AM 24.1 °F 17.0 °F 5.0 °F 44% 30.25 in 10.0 mi ENE 5.8 mph - N/A   Overcast
2:45 AM 21.2 °F 14.9 °F 10.4 °F 63% 30.24 in 2.5 mi NE 4.6 mph - 0.00 in Snow Light Snow
2:51 AM 21.2 °F 16.4 °F 10.4 °F 63% 30.24 in 1.8 mi NNE 3.5 mph - 0.00 in Snow Light Snow
2:56 AM 21.2 °F 16.4 °F 12.2 °F 68% 30.24 in 1.5 mi North 3.5 mph - N/A Snow Light Snow
3:56 AM 19.9 °F 12.1 °F 16.0 °F 85% 30.22 in 1.2 mi ENE 5.8 mph - 0.01 in Snow Light Snow
4:42 AM 19.4 °F 9.5 °F 15.8 °F 86% 30.15 in 0.8 mi ENE 8.1 mph - 0.02 in Snow Light Snow
4:56 AM 19.9 °F 10.1 °F 16.0 °F 85% 30.16 in 1.0 mi ENE 8.1 mph - 0.03 in Snow Light Snow
5:56 AM 19.0 °F 8.2 °F 15.1 °F 85% 30.15 in 1.0 mi ENE 9.2 mph - 0.02 in Snow Light Snow
6:56 AM 19.0 °F 7.5 °F 15.1 °F 85% 30.13 in 1.0 mi ENE 10.4 mph - 0.01 in Snow Light Snow
7:52 AM 19.4 °F 7.9 °F 15.8 °F 86% 30.08 in 0.8 mi NE 10.4 mph - N/A Snow Light Snow
7:56 AM 19.9 °F 11.1 °F 16.0 °F 85% 30.12 in 0.8 mi NNE 6.9 mph 17.3 mph 0.01 in Snow Light Snow
8:56 AM 19.9 °F 8.6 °F 17.1 °F 89% 30.12 in 0.8 mi NE 10.4 mph - 0.02 in Snow Light Snow
9:56 AM 21.9 °F 12.5 °F 18.0 °F 85% 30.08 in 0.8 mi NE 8.1 mph 17.3 mph 0.03 in Snow Light Snow
10:56 AM 23.0 °F 13.9 °F 19.0 °F 85% 30.04 in 0.5 mi NE 8.1 mph - 0.06 in Fog , Snow Snow
11:56 AM 21.9 °F 11.7 °F 19.0 °F 89% 30.03 in 1.0 mi North 9.2 mph - 0.04 in Snow Light Snow
12:56 PM 23.0 °F 12.4 °F 18.0 °F 81% 30.01 in 3.0 mi NNW 10.4 mph - 0.02 in Snow Light Snow
1:25 PM 23.0 °F 14.7 °F 17.6 °F 80% 29.97 in 3.0 mi NNE 6.9 mph - 0.00 in Snow Light Snow
1:56 PM 24.1 °F 13.1 °F 18.0 °F 77% 30.01 in 5.0 mi North 11.5 mph 18.4 mph 0.00 in   Overcast
2:56 PM 25.0 °F 13.1 °F 18.0 °F 75% 30.02 in 10.0 mi North 13.8 mph - N/A   Overcast
3:56 PM 25.0 °F 14.8 °F 19.0 °F 78% 30.06 in 10.0 mi North 10.4 mph - N/A   Overcast
4:56 PM 24.1 °F 13.1 °F 18.0 °F 77% 30.11 in 10.0 mi North 11.5 mph - N/A   Overcast
5:41 PM 24.8 °F 13.4 °F 17.6 °F 74% 30.10 in 9.0 mi North 12.7 mph - 0.00 in   Mostly Cloudy
5:56 PM 24.1 °F 12.0 °F 17.1 °F 75% 30.15 in 10.0 mi North 13.8 mph - 0.00 in   Mostly Cloudy
6:56 PM 24.1 °F 15.2 °F 17.1 °F 75% 30.19 in 10.0 mi North 8.1 mph - N/A   Mostly Cloudy
7:56 PM 24.1 °F 17.0 °F 16.0 °F 71% 30.22 in 10.0 mi North 5.8 mph - N/A   Overcast
8:56 PM 24.1 °F 15.2 °F 16.0 °F 71% 30.25 in 10.0 mi North 8.1 mph - N/A   Overcast
9:56 PM 21.2 °F 11.7 °F 12.2 °F 68% 30.24 in 10.0 mi North 8.1 mph - N/A   Mostly Cloudy
10:56 PM 17.1 °F 5.0 °F 10.9 °F 77% 30.31 in 10.0 mi NNW 10.4 mph - N/A   Clear
11:56 PM 17.1 °F 5.0 °F 10.0 °F 74% 30.33 in 10.0 mi NNW 10.4 mph - N/A   Clear